Weather History for Perry, IA

Change the Weather History Date:

Thursday, August 1, 2013

  Actual Average Record
Temperature  
Mean Temperature 71 °F -  
Max Temperature 86 °F 82 °F 104 °F (1988)
Min Temperature 56 °F 60 °F 50 °F (1977)
Cooling Degree Days 6    
Growing Degree Days 21 (Base 50)    
Moisture  
Dew Point 59 °F    
Average Humidity 68    
Maximum Humidity 91    
Minimum Humidity 31    
Precipitation  
Precipitation 0.00 in - - ()
Sea Level Pressure  
Sea Level Pressure 30.03 in    
Wind  
Wind Speed 5 mph (WSW)    
Max Wind Speed 9 mph    
Max Gust Speed 16 mph    
Visibility 10 miles    
Events      
Averages and records for this station are not official NWS values.
T = Trace of Precipitation, MM = Missing Value Source: NWS Daily Summary

Daily Weather History Graph

Daily Weather History Graph

Search for Another Location

Airport:

Trip Planner

Search our weather history database for the weather conditions in past years. The results will help you decide how hot, cold, wet, or windy it might be!

Date:

Astronomy

Aug. 01, 2013 Rise Set
Actual Time 6:10 AM CDT 8:34 PM CDT
Civil Twilight 5:39 AM CDT 9:05 PM CDT
Nautical Twilight 5:00 AM CDT 9:44 PM CDT
Astronomical Twilight 4:16 AM CDT 10:27 PM CDT
Moon 1:47 AM CDT 4:44 PM CDT
Length of Visible Light 15h 26m
Length of Day
14h 23m
Waning Crescent, 23% of the Moon is Illuminated
Aug 1
Waning Crescent
Aug 6
New
Aug 14
First Quarter
Aug 20
Full
Aug 28
Last Quarter

Hourly Weather History & Observations

Time (CDT) Temp. Heat Index Dew Point Humidity Pressure Visibility Wind Dir Wind Speed Gust Speed Precip Events Conditions
12:15 AM 63.9 °F - 59.9 °F 87% 30.09 in 10.0 mi WNW 4.6 mph - N/A   Clear
12:35 AM 64.0 °F - 59.9 °F 86% 30.09 in 10.0 mi WNW 5.8 mph - N/A   Clear
12:55 AM 63.3 °F - 59.9 °F 89% 30.09 in 10.0 mi West 9.2 mph - N/A   Clear
1:15 AM 62.6 °F - 59.0 °F 88% 30.09 in 10.0 mi NW 4.6 mph - N/A   Clear
1:35 AM 61.5 °F - 58.1 °F 89% 30.08 in 10.0 mi WNW 5.8 mph - N/A   Clear
1:55 AM 61.3 °F - 58.1 °F 89% 30.08 in 10.0 mi West 8.1 mph - N/A   Clear
2:15 AM 61.3 °F - 57.7 °F 88% 30.07 in 10.0 mi West 8.1 mph - N/A   Clear
2:35 AM 60.8 °F - 57.2 °F 88% 30.07 in 10.0 mi NNW 3.5 mph - N/A   Clear
2:55 AM 60.1 °F - 56.7 °F 88% 30.08 in 10.0 mi West 4.6 mph - N/A   Clear
3:15 AM 59.0 °F - 56.1 °F 90% 30.07 in 10.0 mi West 4.6 mph - N/A   Clear
3:35 AM 59.0 °F - 56.1 °F 90% 30.08 in 7.0 mi WSW 4.6 mph - N/A   Clear
3:55 AM 59.2 °F - 56.5 °F 91% 30.07 in 7.0 mi SW 5.8 mph - N/A   Clear
4:15 AM 59.0 °F - 56.1 °F 90% 30.07 in 10.0 mi WSW 6.9 mph - N/A   Clear
4:35 AM 59.0 °F - 55.9 °F 90% 30.07 in 10.0 mi SW 3.5 mph - N/A   Clear
4:55 AM 57.6 °F - 54.5 °F 90% 30.08 in 10.0 mi NW 3.5 mph - N/A   Clear
5:15 AM 58.1 °F - 55.0 °F 90% 30.08 in 7.0 mi West 5.8 mph - N/A   Clear
5:35 AM 58.3 °F - 55.4 °F 90% 30.08 in 10.0 mi West 4.6 mph - N/A   Clear
5:55 AM 58.1 °F - 55.2 °F 90% 30.08 in 10.0 mi Calm Calm - N/A   Clear
6:15 AM 56.8 °F - 54.0 °F 90% 30.09 in 7.0 mi NW 4.6 mph - N/A   Clear
6:35 AM 57.9 °F - 55.2 °F 91% 30.09 in 7.0 mi NNW 4.6 mph - N/A   Clear
6:55 AM 59.7 °F - 56.3 °F 88% 30.09 in 10.0 mi NNW 3.5 mph - N/A   Clear
7:15 AM 60.3 °F - 56.7 °F 88% 30.09 in 10.0 mi West 3.5 mph - N/A   Clear
7:35 AM 61.7 °F - 58.1 °F 88% 30.09 in 10.0 mi West 3.5 mph - N/A   Clear
7:55 AM 63.9 °F - 59.5 °F 86% 30.09 in 10.0 mi West 3.5 mph - N/A   Clear
8:15 AM 66.0 °F - 60.4 °F 82% 30.09 in 10.0 mi Calm Calm - N/A   Clear
8:35 AM 67.8 °F - 61.2 °F 79% 30.09 in 10.0 mi West 4.6 mph - N/A   Clear
8:55 AM 69.4 °F - 61.2 °F 75% 30.10 in 10.0 mi Calm Calm - N/A   Clear
9:15 AM 70.9 °F - 61.2 °F 71% 30.09 in 10.0 mi Calm Calm - N/A   Clear
9:35 AM 72.5 °F - 60.8 °F 67% 30.09 in 10.0 mi West 3.5 mph - N/A   Clear
9:55 AM 74.5 °F - 60.4 °F 61% 30.09 in 10.0 mi Calm Calm - N/A   Clear
10:15 AM 75.2 °F - 60.1 °F 59% 30.08 in 10.0 mi Calm Calm - N/A   Clear
10:35 AM 77.5 °F - 59.9 °F 54% 30.08 in 10.0 mi SW 3.5 mph - N/A   Clear
10:55 AM 78.4 °F - 59.2 °F 51% 30.08 in 10.0 mi WSW 5.8 mph - N/A   Clear
11:15 AM 79.2 °F - 59.0 °F 50% 30.08 in 10.0 mi SW 5.8 mph - N/A   Clear
11:35 AM 80.2 °F 80.7 °F 58.1 °F 47% 30.08 in 10.0 mi WSW 4.6 mph - N/A   Clear
11:55 AM 80.6 °F 80.9 °F 58.3 °F 46% 30.07 in 10.0 mi SSW 6.9 mph - N/A   Clear
12:15 PM 81.3 °F 81.3 °F 57.7 °F 44% 30.07 in 10.0 mi WSW 8.1 mph - N/A   Clear
12:35 PM 82.0 °F 82.1 °F 58.8 °F 45% 30.06 in 10.0 mi West 8.1 mph - N/A   Clear
12:55 PM 82.6 °F 82.5 °F 58.8 °F 44% 30.06 in 10.0 mi WSW 8.1 mph - N/A   Clear
1:15 PM 82.9 °F 82.3 °F 56.1 °F 40% 30.05 in 10.0 mi West 6.9 mph - N/A   Clear
1:35 PM 84.0 °F 83.2 °F 56.3 °F 39% 30.04 in 10.0 mi SSW 9.2 mph - N/A   Clear
1:55 PM 84.2 °F 82.9 °F 54.7 °F 36% 30.04 in 10.0 mi WSW 8.1 mph - N/A   Clear
2:15 PM 84.4 °F 83.1 °F 54.9 °F 36% 30.02 in 10.0 mi SW 4.6 mph 16.1 mph N/A   Clear
2:35 PM 84.7 °F 83.1 °F 53.6 °F 34% 30.01 in 10.0 mi SSW 6.9 mph - N/A   Clear
2:55 PM 85.1 °F - 52.2 °F 32% 30.00 in 10.0 mi South 4.6 mph - N/A   Clear
3:15 PM 85.3 °F - 51.8 °F 31% 29.99 in 10.0 mi SW 5.8 mph - N/A   Clear
3:35 PM 85.6 °F - 52.0 °F 31% 29.98 in 10.0 mi SSW 4.6 mph - N/A   Clear
3:55 PM 86.0 °F 84.2 °F 54.0 °F 33% 29.98 in 10.0 mi South 4.6 mph - N/A   Clear
4:15 PM 84.7 °F 83.7 °F 56.5 °F 38% 29.98 in 10.0 mi SSW 4.6 mph - N/A   Clear
4:35 PM 83.5 °F 82.6 °F 56.1 °F 39% 29.99 in 10.0 mi WSW 4.6 mph - N/A   Clear
4:55 PM 82.6 °F 82.5 °F 58.6 °F 44% 29.99 in 10.0 mi WSW 5.8 mph - N/A   Clear
5:15 PM 81.5 °F 82.4 °F 61.5 °F 51% 29.98 in 10.0 mi SSW 4.6 mph - N/A   Clear
5:35 PM 80.6 °F 81.6 °F 61.7 °F 52% 29.97 in 10.0 mi SSW 5.8 mph - N/A   Clear
5:55 PM 79.7 °F - 63.5 °F 58% 29.98 in 10.0 mi WSW 4.6 mph - N/A   Clear
6:15 PM 79.3 °F - 61.9 °F 55% 29.97 in 10.0 mi WSW 3.5 mph - N/A   Scattered Clouds
6:35 PM 78.3 °F - 62.4 °F 58% 29.96 in 10.0 mi WSW 4.6 mph - N/A   Scattered Clouds
6:55 PM 78.6 °F - 59.2 °F 51% 29.96 in 10.0 mi WSW 8.1 mph - N/A   Clear
7:15 PM 77.5 °F - 60.1 °F 55% 29.95 in 10.0 mi WSW 6.9 mph - N/A   Clear
7:35 PM 77.2 °F - 60.4 °F 56% 29.94 in 10.0 mi SW 5.8 mph - N/A   Clear
7:55 PM 75.2 °F - 61.5 °F 62% 29.93 in 10.0 mi SW 3.5 mph - N/A   Clear
8:15 PM 73.9 °F - 62.4 °F 67% 29.92 in 10.0 mi SSW 3.5 mph - N/A   Clear
8:35 PM 73.2 °F - 62.6 °F 69% 29.92 in 10.0 mi SSE 3.5 mph - N/A   Clear
8:55 PM 70.7 °F - 63.5 °F 78% 29.93 in 10.0 mi South 4.6 mph - N/A   Clear
9:15 PM 69.3 °F - 63.3 °F 81% 29.94 in 10.0 mi SSW 6.9 mph - N/A   Clear
9:35 PM 68.9 °F - 62.8 °F 81% 29.93 in 10.0 mi South 5.8 mph - N/A   Clear
9:55 PM 68.9 °F - 62.8 °F 81% 29.94 in 10.0 mi South 3.5 mph - N/A   Clear
10:15 PM 69.4 °F - 62.6 °F 79% 29.94 in 10.0 mi Calm Calm - N/A   Clear
10:35 PM 68.9 °F - 62.6 °F 80% 29.93 in 10.0 mi SSW 3.5 mph - N/A   Clear
10:55 PM 68.2 °F - 62.8 °F 83% 29.92 in 10.0 mi Calm Calm - N/A   Clear
11:15 PM 68.2 °F - 62.8 °F 83% 29.92 in 10.0 mi Calm Calm - N/A   Clear
11:35 PM 67.5 °F - 63.0 °F 85% 29.93 in 10.0 mi Calm Calm - N/A   Clear
11:55 PM 68.9 °F - 62.6 °F 80% 29.92 in 10.0 mi Calm Calm - N/A   Clear